Location: Unspecified
(0.0000°N, 0.0000°E)
Time: 07:39:03
(UTC+00:00)

Courier 1B - Visible Passes

Search period start: 09 December 2016 00:00
Search period end: 19 December 2016 00:00
Orbit: 962 x 1209 km, 28.3° (Epoch: 08 December)

Date Brightness Start Highest point End Pass type
(mag) Time Alt. Az. Time Alt. Az. Time Alt. Az.
09 Dec 8.3 03:20:03 49° S 03:21:34 57° SSE 03:29:10 10° ENE visible
09 Dec 8.3 05:08:45 10° W 05:16:01 46° NNW 05:23:29 10° NE visible
09 Dec 10.1 18:41:00 10° SW 18:44:04 14° SSW 18:47:09 10° S visible
10 Dec 9.4 02:31:03 27° E 02:31:03 27° E 02:34:44 10° E visible
10 Dec 7.9 04:18:03 30° W 04:22:00 62° NNW 04:29:44 10° NE visible
11 Dec 7.8 03:28:55 72° NE 03:28:55 72° NE 03:35:49 10° ENE visible
11 Dec 8.9 05:16:25 10° W 05:22:41 27° NNW 05:29:06 10° NNE visible
12 Dec 9.7 02:39:39 20° ENE 02:39:39 20° ENE 02:41:44 10° ENE visible
12 Dec 8.4 04:26:37 31° WNW 04:28:35 36° NNW 04:35:35 10° NE visible
13 Dec 8.7 03:37:12 35° NNE 03:37:12 35° NNE 03:41:55 10° NE visible
13 Dec 9.4 05:25:07 10° WNW 05:29:36 16° NNW 05:34:10 10° NNE visible
14 Dec 10.1 02:47:37 12° NE 02:47:37 12° NE 02:48:06 10° NE visible
14 Dec 9.0 04:34:35 21° NNW 04:35:22 21° NNW 04:40:57 10° NNE visible
15 Dec 9.4 03:44:51 19° NNE 03:44:51 19° NNE 03:47:33 10° NNE visible
16 Dec 9.5 04:41:56 13° NNW 04:42:27 13° NNW 04:45:31 10° N visible
17 Dec 9.8 03:51:58 11° N 03:51:58 11° N 03:52:36 10° NNE visible
